Regional Weather Roundup
Issued by NWS

Home | Current Version | Previous Version | Graphics & Text | Print | Product List | Glossary On
Versions: 1 2 3 4 5 6 7 8 9 10 11 12 13 14 15 16 17 18 19 20 21 22 23 24 25 26 27 28 29 30 31 32 33 34 35 36 37 38 39 40 41 42 43 44 45 46 47 48 49 50
000
ASUS43 KMKX 272300
RWRWI

WISCONSIN REGIONAL WEATHER ROUNDUP
NATIONAL WEATHER SERVICE MILWAUKEE/SULLIVAN WI
500 PM CST THU NOV 27 2014

NOTE: "FAIR" INDICATES FEW OR NO CLOUDS BELOW 12,000 FEET WITH NO
SIGNIFICANT WEATHER AND/OR OBSTRUCTIONS TO VISIBILITY.

WIZ001-002-006>008-014>016-023>028-280000-
NORTHWEST WISCONSIN

CITY           SKY/WX    TMP DP  RH WIND       PRES   REMARKS
SUPERIOR ARPT  CLEAR      5  -4  66 S5        30.40F WCI  -4
ASHLAND        CLEAR      2  -2  83 SW3       30.39F
HAYWARD        CLEAR      2  -3  80 S3        30.35F
SIREN          CLEAR      6  -5  59 SW3       30.39S
CUMBERLAND     CLEAR      5  -6  61 CALM      30.36F
RICE LAKE      CLEAR      8  -5  56 CALM      30.39F
CHETEK         CLEAR      5  -5  63 CALM      30.38F
LADYSMITH      CLEAR      8  -2  65 CALM      30.37F
EAU CLAIRE     CLEAR      6  -5  60 CALM      30.39F
MENOMONIE      CLEAR      9  -4  55 CALM      30.41F
NEW RICHMOND   CLEAR      7  -4  60 SW3       30.40F
OSCEOLA        CLEAR      8  -5  57 CALM      30.43F
$$

WIZ003>005-009-010-017-018-280000-
NORTH CENTRAL WISCONSIN

CITY           SKY/WX    TMP DP  RH WIND       PRES   REMARKS
MANITOWISH WTR PTCLDY     2  -2  81 NW3       30.29F
ARBOR VITAE    CLEAR      8   2  78 CALM      30.29S
WOODRUFF       CLEAR      8   2  78 CALM      30.29S
RHINELANDER    CLEAR      1  -4  79 W3        30.30S
EAGLE RIVER    LGT SNOW   9   3  76 CALM      30.29R
LAND O LAKES   CLEAR      5   1  84 CALM      30.29R
PHILLIPS       CLEAR      8  -1  66 CALM      30.31F
TOMAHAWK       CLEAR      4   0  81 CALM      30.32S
MEDFORD        CLEAR      7  -2  67 W7        30.33F WCI  -5
MERRILL        CLEAR     11   1  62 NW3       30.33S
$$

WIZ029-030-035-036-043>047-280000-
CENTRAL WISCONSIN

CITY           SKY/WX    TMP DP  RH WIND       PRES   REMARKS
WAUSAU         CLEAR      8   0  69 W9        30.34S WCI  -5
MOSINEE        CLEAR      9   3  78 W7        30.36S WCI  -3
MARSHFIELD     CLEAR      3  -5  69 W3        30.35F
STEVENS POINT  CLEAR      8   0  70 W6        30.38R WCI  -2
WAUPACA        CLEAR     15   4  62 W6        30.38S WCI   6
WAUTOMA        NOT AVBL
WISC RAPIDS    CLEAR      8  -3  61 NW3       30.39F
CAMP DOUGLAS   NOT AVBL
$$

WIZ011>013-019>022-031-037>040-048>050-280000-
NORTHEAST WISCONSIN

CITY           SKY/WX    TMP DP  RH WIND       PRES   REMARKS
ANTIGO         CLEAR      3  -4  71 NW5       30.31S WCI  -7
SHAWANO        CLEAR     16   5  63 W3        30.36S
OCONTO         CLEAR     14   3  60 CALM      30.37R
STURGEON BAY   MOCLDY    16   1  53 NW8       30.35R WCI   5
GREEN BAY      CLEAR     12   3  67 W7        30.37R WCI   1
MANITOWOC      NOT AVBL
APPLETON       PTCLDY    12   3  67 MISG      30.37R
CLINTONVILLE   CLEAR     12   5  73 W6        30.37R WCI   3
OSHKOSH        CLEAR     12   4  70 MISG      30.38R
$$

WIZ032>034-041-042-053>061-280000-
SOUTHWEST WISCONSIN

CITY           SKY/WX    TMP DP  RH WIND       PRES   REMARKS
LA CROSSE      CLEAR      9  -2  61 N3        30.43F
SPARTA         CLEAR      9   1  67 W3        30.42F
VIROQUA        CLEAR      7  -3  66 NW5       30.37F WCI  -2
BOSCOBEL       CLEAR     12  -3  51 NW3       30.44S
PRAIRIE DU CHI CLEAR     13  -2  50 NW5       30.44F WCI   5
PLATTEVILLE    CLEAR     13   1  57 CALM      30.41R
$$

WIZ056-057-062-063-064-067-068-280000-
SOUTH CENTRAL WISCONSIN

CITY           SKY/WX    TMP DP  RH WIND       PRES   REMARKS
REEDSBURG      CLEAR     11   2  66 NW5       30.40S WCI   3
BARABOO/DELLS  CLEAR     12   4  71 CALM      30.40R
LONE ROCK      NOT AVBL
MINERAL POINT  CLEAR     16   3  57 NW5       30.38S WCI   9
MADISON        PTCLDY    14   6  70 NW5       30.40R WCI   6
MIDDLETON      CLEAR     14   5  68 NW5       30.40S WCI   6
WATERTOWN      CLOUDY    16  10  76 NW6       30.39R WCI   7
MONROE         CLEAR     18   9  68 NW5       30.37S WCI  11
JANESVILLE     CLEAR     16   7  67 NW6       30.40R WCI   7
$$

WIZ051-052-058>065-066-070>072-280000-
SOUTHEAST WISCONSIN

CITY           SKY/WX    TMP DP  RH WIND       PRES   REMARKS
MILWAUKEE      PTCLDY    19   7  59 W8        30.39R WCI   9
WAUKESHA       MOCLDY    14   7  73 NW8       30.39R WCI   3
MILWAUKEE/TIMM MOCLDY    18   9  68 NW5       30.40R WCI  11
RACINE         PTCLDY    19   9  65 NW7       30.41R WCI  10
BURLINGTON     FLURRIES  17  11  80 NW8       30.39R WCI   6
KENOSHA        FLURRIES  19  11  70 NW10      30.40R WCI   7
FOND DU LAC    CLEAR     13   4  67 W6        30.38R WCI   4
SHEBOYGAN      CLEAR     13   5  70 NW3       30.37R
WEST BEND      MOCLDY    16   9  73 NW3       30.37R
JUNEAU         PTCLDY    13   8  78 W3        30.39R
$$

LSZ147-162-280000-
LAKE SUPERIOR

STATION/POSITION TIME  TEMP    WIND        PRES    WAVE
                       AIR SEA DIR/SP/G            HT/PER
                 (UTC) (F)     (DEG/KT/KT) (MB)    (FT/S)
DEVILS ISLAND    2200   12     240/ 11/ 14 1030.5F
PORT WING        2200    8     190/  7/  9 1029.5F
SAXON HARBOR     2200   11     210/  2/  6 1029.1F
$$

LMZ867-665-643>646-280000-
LAKE MICHIGAN

STATION/POSITION TIME  TEMP    WIND        PRES    WAVE
                       AIR SEA DIR/SP/G            HT/PER
                 (UTC) (F)     (DEG/KT/KT) (MB)    (FT/S)
CHAMBERS ISLAND  2200   17     310/  8/ 13 1027.8R
N MID LAKE BUOY  2150   20 42  320/ 19/ 23 1027.2R   3/ 5
NORTHPORT PIER   2210   19     310/ 13/ 19 1027.1S
SISTER BAY       2128          330/ 18/ 23   N/A
ALGOMA LAKESHORE 2043          310/ 12/ 17   N/A
KEWAUNEE LAKESHO 2206   16     310/  1/  3 1026.9R
SHEBOYGAN LAKESH 2200   18 34  320/ 10/ 11 1029.6R
PORT WASHINGTON  2200   19     310/  6/ 11 1029.1R
MILWAUKEE LAKESH 2200   20     310/ 11/ 15   N/A
S MID LAKE BUOY  2150   26 42  320/ 17/ 21 1028.2R
KENOSHA   LAKESH 2200   21     300/  8/ 13 1028.4R
$$

TC  - TEMPERATURE IN CELSIUS
VSB - VISIBILITY IN STATUTE MILES
WCI - WIND CHILL INDEX
HX  - HEAT INDEX



USA.gov is the U.S. government's official web portal to all federal, state and local government web resources and services.